New York JFK, NY

5:53 PM EDT on March 27, 2017 (GMT -0400)
Kennedy International

Weather History for KJFK - January, 2014

Change the Weather History Date:

Friday, January 17, 2014

  Actual Average Record
Temperature  
Mean Temperature 37 °F 32 °F  
Max Temperature 45 °F 39 °F 55 °F (1973)
Min Temperature 28 °F 26 °F -1 °F (1977)
Degree Days  
Heating Degree Days 28 33  
Month to date heating degree days 568 547  
Since 1 July heating degree days 2210 2216  
Cooling Degree Days 0 0  
Month to date cooling degree days 0 0  
Year to date cooling degree days 0 0  
Moisture  
Dew Point 30 °F    
Average Humidity 71    
Maximum Humidity 85    
Minimum Humidity 57    
Precipitation  
Precipitation 0.00 in 0.10 in 1.18 in (1997)
Month to date precipitation 2.32 1.81  
Year to date precipitation 2.32 1.81  
Snow  
Snow 0.00 in 0.20 in 5.90 in (1985)
Month to date snowfall 8.0 3.4  
Since 1 July snowfall 14.9 8.3  
Snow Depth 0.00 in    
Sea Level Pressure  
Sea Level Pressure 29.96 in    
Wind  
Wind Speed 7 mph (SSW)    
Max Wind Speed 20 mph    
Max Gust Speed 23 mph    
Visibility 10 miles    
Events      
T = Trace of Precipitation, MM = Missing Value Source: NWS Daily Summary

Daily Weather History Graph

Daily Weather History Graph

Search for Another Location

Airport or City:

Trip Planner

Search our weather history database for the weather conditions in past years. The results will help you decide how hot, cold, wet, or windy it might be!

Date:

Astronomy

Jan. 17, 2014 Rise Set
Actual Time 7:15 AM EST 4:54 PM EST
Civil Twilight 6:45 AM EST 5:24 PM EST
Nautical Twilight 6:12 AM EST 5:58 PM EST
Astronomical Twilight 5:39 AM EST 6:31 PM EST
Moon 6:39 PM EST (1/17) 7:41 AM EST (1/17)
Length of Visible Light 10h 38m
Length of Day
9h 38m
Full, 98% of the Moon is Illuminated
Jan 17
Full
Jan 24
Last Quarter
Jan 30
New
Feb 6
First Quarter
Feb 14
Full

Hourly Weather History & Observations

Time (EST) Temp. Windchill Dew Point Humidity Pressure Visibility Wind Dir Wind Speed Gust Speed Precip Events Conditions
12:51 AM 34.0 °F 29.8 °F 28.0 °F 79% 29.95 in 10.0 mi WSW 4.6 mph - N/A   Partly Cloudy
1:51 AM 30.9 °F 24.3 °F 27.0 °F 85% 29.96 in 10.0 mi WSW 6.9 mph - N/A   Clear
2:51 AM 30.0 °F 24.1 °F 26.1 °F 85% 29.97 in 10.0 mi SW 5.8 mph - N/A   Clear
3:51 AM 30.0 °F 24.1 °F 24.1 °F 79% 29.96 in 10.0 mi SW 5.8 mph - N/A   Clear
4:51 AM 28.9 °F 20.4 °F 24.1 °F 82% 29.97 in 10.0 mi WSW 9.2 mph - N/A   Clear
5:51 AM 28.9 °F 22.8 °F 24.1 °F 82% 29.99 in 10.0 mi WSW 5.8 mph - N/A   Partly Cloudy
6:51 AM 30.0 °F 24.1 °F 23.0 °F 75% 29.99 in 10.0 mi SW 5.8 mph - N/A   Partly Cloudy
7:51 AM 32.0 °F - 23.0 °F 69% 29.98 in 10.0 mi Calm Calm - N/A   Partly Cloudy
8:51 AM 37.0 °F 29.3 °F 26.1 °F 65% 30.01 in 10.0 mi South 11.5 mph - N/A   Scattered Clouds
9:51 AM 39.9 °F 32.5 °F 27.0 °F 60% 30.02 in 10.0 mi South 12.7 mph - N/A   Scattered Clouds
10:51 AM 42.1 °F 34.5 °F 28.9 °F 60% 30.00 in 10.0 mi SSW 15.0 mph - N/A   Scattered Clouds
11:51 AM 44.1 °F 38.1 °F 33.1 °F 65% 29.97 in 10.0 mi South 11.5 mph - N/A   Scattered Clouds
12:51 PM 44.1 °F 36.8 °F 33.1 °F 65% 29.94 in 10.0 mi South 16.1 mph - N/A   Scattered Clouds
1:51 PM 44.1 °F 37.7 °F 34.0 °F 68% 29.94 in 10.0 mi South 12.7 mph - N/A   Scattered Clouds
2:51 PM 44.1 °F 38.1 °F 35.1 °F 71% 29.94 in 10.0 mi South 11.5 mph - N/A   Mostly Cloudy
3:51 PM 43.0 °F 38.8 °F 35.1 °F 74% 29.94 in 10.0 mi SW 6.9 mph - N/A   Scattered Clouds
4:51 PM 41.0 °F 37.1 °F 34.0 °F 76% 29.93 in 10.0 mi South 5.8 mph - N/A   Mostly Cloudy
5:51 PM 39.9 °F - 34.0 °F 79% 29.94 in 10.0 mi Calm Calm - N/A   Mostly Cloudy
6:51 PM 37.0 °F 32.4 °F 32.0 °F 82% 29.95 in 10.0 mi WSW 5.8 mph - N/A   Mostly Cloudy
7:51 PM 39.0 °F 36.8 °F 34.0 °F 82% 29.94 in 10.0 mi SW 3.5 mph - N/A   Overcast
8:51 PM 39.0 °F 36.8 °F 33.1 °F 79% 29.95 in 10.0 mi SSW 3.5 mph - N/A   Overcast
9:51 PM 39.9 °F - 33.1 °F 77% 29.95 in 10.0 mi Calm Calm - N/A   Overcast
10:51 PM 39.0 °F 35.7 °F 30.9 °F 73% 29.93 in 10.0 mi NE 4.6 mph - N/A   Overcast
11:51 PM 39.0 °F 34.8 °F 33.1 °F 79% 29.90 in 10.0 mi NE 5.8 mph - N/A   Overcast